Location: Champignolles
(47.0543°N, 4.5663°E)
Time: 14:57:15
(UTC+00:00)

USA 267 - Pass Details

Date: 30 November 2020
Orbit: 1100 x 1107 km, 123.0° (Epoch: 18 January)

Event Time Altitude Azimuth Distance (km) Brightness Sun altitude
Exits shadow 18:18:23 46° 89° (E) 1,448 3.4 -23.7°
Maximum altitude 18:20:19 66° 28° (NNE) 1,197 3.2 -24.1°
Drops below altitude 10° 18:26:48 10° 308° (NW) 2,969 6.1 -25.2°
Sets 18:29:18 0° 306° (NW) 3,929 6.9 -25.6°
